This is the latest recevied weather packets stored in our database for station/object LA1HSA-13. If no packets are shown the sender has not sent any weather packets the latest 10 day(s).
| Time | Temp. | Humidity | Pressure | Rain* | Wind** | Luminosity | Snow |
|---|---|---|---|---|---|---|---|
| 1778058003 | 8.89° C | 40% | 1012.6 hPa | 0 mm | - | - | - |
| 1778057404 | 8.89° C | 41% | 1012.8 hPa | 0 mm | - | - | - |
| 1778056803 | 8.33° C | 42% | 1012.8 hPa | 0 mm | - | - | - |
| 1778056203 | 8.33° C | 45% | 1012.8 hPa | 0 mm | - | - | - |
| 1778055603 | 8.33° C | 42% | 1012.7 hPa | 0 mm | - | - | - |
| 1778055003 | 8.33° C | 45% | 1013 hPa | 0 mm | - | - | - |
| 1778054404 | 7.22° C | 46% | 1013.1 hPa | 0 mm | - | - | - |
| 1778053803 | 8.33° C | 49% | 1013.1 hPa | 0 mm | - | - | - |
| 1778053203 | 7.78° C | 48% | 1013 hPa | 0 mm | - | - | - |
| 1778052604 | 7.22° C | 48% | 1012.8 hPa | 0 mm | - | - | - |
| 1778052003 | 7.22° C | 48% | 1012.8 hPa | 0 mm | - | - | - |
| 1778051403 | 6.67° C | 51% | 1013 hPa | 0 mm | - | - | - |
| 1778050803 | 6.11° C | 54% | 1012.9 hPa | 0 mm | - | - | - |
| 1778050203 | 5.56° C | 56% | 1013 hPa | 0 mm | - | - | - |
| 1778049603 | 5° C | 59% | 1012.8 hPa | 0 mm | - | - | - |
| 1778049003 | 5° C | 59% | 1013.2 hPa | 0 mm | - | - | - |
| 1778048404 | 5° C | 60% | 1013.1 hPa | 0 mm | - | - | - |
| 1778047803 | 3.33° C | 62% | 1013.1 hPa | 0 mm | - | - | - |
| 1778047203 | 2.78° C | 64% | 1013 hPa | 0 mm | - | - | - |
| 1778046603 | 2.78° C | 64% | 1013.1 hPa | 0 mm | - | - | - |
| 1778046003 | 1.67° C | 66% | 1012.9 hPa | 0 mm | - | - | - |
| 1778045404 | 1.67° C | 67% | 1012.7 hPa | 0 mm | - | - | - |
| 1778044803 | 0.56° C | 70% | 1012.8 hPa | 0 mm | - | - | - |
| 1778044204 | 0° C | 71% | 1012.8 hPa | 0 mm | - | - | - |
| 1778043603 | 0° C | 70% | 1012.7 hPa | 0 mm | - | - | - |
* Rain latest hour (hover to see other rain measurements)
** Current wind speed in m/s (hover to see current wind gust speed)